Wolf Creek Pass, CO

3:15 PM MDT on May 28, 2017 (GMT -0600)
Wolf Creek Pass

Weather History for KCPW - January, 2014

Change the Weather History Date:

Friday, January 17, 2014

  Actual Average (KALS) Record (KALS)
Temperature  
Mean Temperature 21 °F -  
Max Temperature 28 °F 33 °F 55 °F (2000)
Min Temperature 14 °F -2 °F -32 °F (2008)
Degree Days  
Heating Degree Days 44    
Moisture  
Dew Point 2 °F    
Average Humidity 43    
Maximum Humidity 54    
Minimum Humidity 32    
Precipitation  
Precipitation 0.00 in - - ()
Sea Level Pressure  
Sea Level Pressure 30.28 in    
Wind  
Wind Speed 12 mph (NNW)    
Max Wind Speed 24 mph    
Max Gust Speed 32 mph    
Visibility 10 miles    
Events      
Averages and records for this station are not official NWS values.
T = Trace of Precipitation, MM = Missing Value Source: NWS Daily Summary

Daily Weather History Graph

Daily Weather History Graph

Search for Another Location

Airport or City:

Trip Planner

Search our weather history database for the weather conditions in past years. The results will help you decide how hot, cold, wet, or windy it might be!

Date:

Astronomy

Jan. 17, 2014 Rise Set
Actual Time 7:19 AM MST 5:15 PM MST
Civil Twilight 6:51 AM MST 5:43 PM MST
Nautical Twilight 6:19 AM MST 6:15 PM MST
Astronomical Twilight 5:48 AM MST 6:46 PM MST
Moon 7:01 PM MST (1/17) 7:52 AM MST (1/17)
Length of Visible Light 10h 52m
Length of Day
9h 55m
Full, 98% of the Moon is Illuminated
Jan 17
Full
Jan 23
Last Quarter
Jan 30
New
Feb 6
First Quarter
Feb 14
Full

Hourly Weather History & Observations

Time (MST) Temp. Windchill Dew Point Humidity Pressure Visibility Wind Dir Wind Speed Gust Speed Precip Events Conditions
12:17 AM 17.6 °F -0.3 °F -5.8 °F 35% 30.29 in 10.0 mi North 24.2 mph 27.6 mph N/A   Clear
12:37 AM 17.6 °F 1.7 °F -4.0 °F 38% 30.29 in 10.0 mi NNE 18.4 mph 29.9 mph N/A   Clear
12:57 AM 17.6 °F 3.7 °F -4.0 °F 38% 30.29 in 10.0 mi NE 13.8 mph 26.5 mph N/A   Clear
1:17 AM 14.0 °F -0.2 °F -4.0 °F 45% 30.29 in 10.0 mi NNE 12.7 mph 21.9 mph N/A   Clear
1:37 AM 14.0 °F -2.0 °F -2.2 °F 49% 30.29 in 10.0 mi NNE 16.1 mph - N/A   Clear
1:57 AM 17.6 °F 2.7 °F -4.0 °F 38% 30.28 in 10.0 mi NNE 16.1 mph 26.5 mph N/A   Clear
2:17 AM 17.6 °F 5.7 °F -4.0 °F 38% 30.29 in 10.0 mi NNW 10.4 mph 16.1 mph N/A   Clear
2:37 AM 17.6 °F 7.3 °F -4.0 °F 38% 30.29 in 10.0 mi North 8.1 mph 20.7 mph N/A   Clear
2:57 AM 17.6 °F 2.2 °F -4.0 °F 38% 30.29 in 10.0 mi North 17.3 mph 25.3 mph N/A   Clear
3:17 AM 17.6 °F 8.2 °F -4.0 °F 38% 30.29 in 10.0 mi NW 6.9 mph 19.6 mph N/A   Clear
3:37 AM 14.0 °F 2.9 °F -0.4 °F 53% 30.29 in 10.0 mi NW 8.1 mph 17.3 mph N/A   Clear
3:57 AM 14.0 °F 2.9 °F -0.4 °F 53% 30.29 in 10.0 mi NW 8.1 mph - N/A   Clear
4:17 AM 14.0 °F 2.9 °F -2.2 °F 49% 30.29 in 10.0 mi NW 8.1 mph - N/A   Clear
4:32 AM 14.0 °F 1.2 °F -4.0 °F 45% 30.29 in 10.0 mi NNW 10.4 mph 16.1 mph N/A   Clear
4:48 AM 15.8 °F 4.2 °F -4.0 °F 41% 30.29 in 10.0 mi NNW 9.2 mph - N/A   Clear
5:01 AM 15.8 °F 4.2 °F -4.0 °F 41% 30.29 in 10.0 mi NNW 9.2 mph - N/A   Clear
6:26 AM 17.6 °F 7.3 °F -7.6 °F 32% 30.29 in 10.0 mi NW 8.1 mph 16.1 mph N/A   Clear
7:14 AM 17.6 °F 7.3 °F -7.6 °F 32% 30.29 in 10.0 mi NNW 8.1 mph - N/A   Clear
7:37 AM 19.4 °F 7.9 °F -5.8 °F 33% 30.29 in 10.0 mi NNW 10.4 mph 20.7 mph N/A   Clear
7:55 AM 17.6 °F 12.3 °F -5.8 °F 35% 30.30 in 10.0 mi ENE 3.5 mph 18.4 mph N/A   Clear
8:17 AM 17.6 °F 8.2 °F -4.0 °F 38% 30.29 in 10.0 mi NNW 6.9 mph - N/A   Clear
8:37 AM 19.4 °F - -4.0 °F 36% 30.30 in 10.0 mi Calm Calm - N/A   Clear
8:57 AM 19.4 °F 10.4 °F -0.4 °F 42% 30.30 in 10.0 mi North 6.9 mph - N/A   Clear
9:17 AM 19.4 °F 7.9 °F 1.4 °F 46% 30.31 in 10.0 mi North 10.4 mph 19.6 mph N/A   Clear
9:37 AM 21.2 °F 7.8 °F 3.2 °F 46% 30.31 in 10.0 mi NNE 15.0 mph 31.1 mph N/A   Clear
9:57 AM 23.0 °F 10.1 °F 5.0 °F 46% 30.31 in 10.0 mi NNE 15.0 mph 24.2 mph N/A   Clear
10:17 AM 23.0 °F 11.1 °F 5.0 °F 46% 30.32 in 10.0 mi North 12.7 mph 21.9 mph N/A   Clear
10:37 AM 23.0 °F 10.6 °F 5.0 °F 46% 30.32 in 10.0 mi North 13.8 mph 32.2 mph N/A   Clear
10:57 AM 24.8 °F 11.1 °F 5.0 °F 43% 30.32 in 10.0 mi NNE 18.4 mph 26.5 mph N/A   Clear
11:17 AM 24.8 °F 11.9 °F 5.0 °F 43% 30.32 in 10.0 mi North 16.1 mph 19.6 mph N/A   Clear
11:37 AM 26.6 °F 20.0 °F 5.0 °F 40% 30.32 in 10.0 mi NE 5.8 mph - N/A   Clear
11:56 AM 28.4 °F 24.6 °F 5.0 °F 37% 30.31 in 10.0 mi North 3.5 mph - N/A   Clear
12:17 PM 28.4 °F 18.5 °F 5.0 °F 37% 30.29 in 10.0 mi NE 11.5 mph 16.1 mph N/A   Clear
12:37 PM 28.4 °F 20.4 °F 6.8 °F 40% 30.29 in 10.0 mi North 8.1 mph - N/A   Clear
12:57 PM 26.6 °F 12.7 °F 5.0 °F 40% 30.27 in 10.0 mi North 20.7 mph 25.3 mph N/A   Clear
1:17 PM 26.6 °F 14.3 °F 5.0 °F 40% 30.27 in 10.0 mi NNE 16.1 mph 23.0 mph N/A   Clear
1:36 PM 26.6 °F 15.2 °F 6.8 °F 43% 30.27 in 10.0 mi NNE 13.8 mph 24.2 mph N/A   Clear
1:57 PM 28.4 °F 21.2 °F 8.6 °F 43% 30.27 in 10.0 mi NW 6.9 mph - N/A   Clear
2:17 PM 28.4 °F 19.1 °F 8.6 °F 43% 30.27 in 10.0 mi NW 10.4 mph 18.4 mph N/A   Clear
2:37 PM 28.4 °F 21.2 °F 8.6 °F 43% 30.27 in 10.0 mi WNW 6.9 mph 17.3 mph N/A   Clear
2:57 PM 28.4 °F 21.2 °F 8.6 °F 43% 30.27 in 10.0 mi NW 6.9 mph - N/A   Clear
3:17 PM 28.4 °F 19.7 °F 8.6 °F 43% 30.27 in 10.0 mi NNW 9.2 mph 18.4 mph N/A   Clear
3:35 PM 28.4 °F 23.3 °F 8.6 °F 43% 30.27 in 10.0 mi NW 4.6 mph 20.7 mph N/A   Clear
3:56 PM 28.4 °F 18.5 °F 8.6 °F 43% 30.27 in 10.0 mi NW 11.5 mph 17.3 mph N/A   Clear
4:17 PM 28.4 °F 20.4 °F 6.8 °F 40% 30.27 in 10.0 mi NW 8.1 mph 16.1 mph N/A   Clear
4:33 PM 28.4 °F 23.3 °F 6.8 °F 40% 30.27 in 10.0 mi NW 4.6 mph 21.9 mph N/A   Clear
7:19 PM 21.2 °F 11.7 °F 5.0 °F 50% 30.28 in 10.0 mi NNE 8.1 mph - N/A   Clear
8:17 PM 21.2 °F 10.1 °F 5.0 °F 50% 30.27 in 10.0 mi North 10.4 mph 17.3 mph N/A   Clear
8:28 PM 21.2 °F 11.7 °F 5.0 °F 50% 30.26 in 10.0 mi North 8.1 mph 17.3 mph N/A   Clear
8:48 PM 21.2 °F 9.5 °F 5.0 °F 50% 30.26 in 10.0 mi NNE 11.5 mph 16.1 mph N/A   Clear
9:17 PM 21.2 °F 11.7 °F 5.0 °F 50% 30.26 in 10.0 mi NNW 8.1 mph - N/A   Clear
9:35 PM 21.2 °F 16.4 °F 5.0 °F 50% 30.27 in 10.0 mi NW 3.5 mph - N/A   Clear
9:57 PM 19.4 °F 11.5 °F 5.0 °F 54% 30.26 in 10.0 mi WSW 5.8 mph - N/A   Clear
10:12 PM 19.4 °F - 5.0 °F 54% 30.27 in 10.0 mi Calm Calm - N/A   Clear
10:35 PM 19.4 °F 11.5 °F 3.2 °F 49% 30.26 in 10.0 mi West 5.8 mph - N/A   Clear
10:46 PM 19.4 °F 10.4 °F 3.2 °F 49% 30.26 in 10.0 mi WNW 6.9 mph - N/A   Clear
11:00 PM 19.4 °F 10.4 °F 3.2 °F 49% 30.26 in 10.0 mi WNW 6.9 mph 16.1 mph N/A   Clear
11:26 PM 19.4 °F 7.9 °F 5.0 °F 54% 30.25 in 10.0 mi WNW 10.4 mph 16.1 mph N/A   Clear